Home   Weather   Langenthal   Past weeks

Flag for Switzerland Past Weather in Langenthal, Bern, Switzerland — Yesterday and Last 2 Weeks

Now
32 °F

Chilly.


Feels Like: 32 °F
Forecast: 21 / 43 °F
Wind: 2 mph from South

Location: Wynau

Current Time: Dec 5, 2016 at 7:38:06 pm

Latest Report: Dec 5, 2016 at 6:00 pm


Visibility: N/A

Pressure: 30.44 "Hg

Humidity: 95%

Dew Point: 31 °F

Location of LangenthalLocation

Past Weather in Langenthal — Graph

°F

Langenthal Temperature Yesterday

Maximum temperature yesterday: 35 °F (at 3:00 pm)
Minimum temperature yesterday: 30 °F (at 9:00 pm)
Average temperature yesterday: 34 °F

High & Low Weather Summary for the Past Weeks

 TemperatureHumidityPressure
High54 °F (Nov 22, 2:00 pm)100% (Nov 20, 7:00 pm)30.68 "Hg (Nov 20, 7:00 pm)
Low23 °F (Nov 30, 5:00 am)50% (Nov 28, 4:00 pm)29.66 "Hg (Nov 21, 3:00 pm)
Average37 °F89%30.16 "Hg
* Reported Nov 20 6:00 pm — Dec 5 6:00 pm, Langenthal, Weather by CustomWeather, © 2016

Note: Actual official high and low records may vary slightly from our data, if they occured in-between our weather recording intervals... More about our weather records

Advertising

Langenthal Weather History for the Previous 24 Hours

Scroll right to see more
 ConditionsComfort  
Time TempWeatherWind HumidityBarometerVisibility
6:00 pm
Mon, Dec 5
32 °FChilly.2 mph95%30.44 "HgN/A
5:00 pm32 °FChilly.2 mph94%30.43 "HgN/A
4:00 pm33 °FChilly.1 mph95%30.42 "HgN/A
3:00 pm33 °FChilly.1 mph92%30.41 "HgN/A
2:00 pm33 °FChilly.2 mph91%30.41 "HgN/A
1:00 pm32 °FChilly.5 mph90%30.42 "HgN/A
12:00 pm32 °FChilly.5 mph92%30.43 "HgN/A
11:00 am31 °FChilly.5 mph94%30.45 "HgN/A
10:00 am30 °FChilly.3 mph95%30.45 "HgN/A
9:00 am29 °FChilly.3 mph96%30.44 "HgN/A
8:00 am29 °FChilly.2 mph98%30.42 "HgN/A
7:00 am30 °FChilly.3 mph95%30.40 "HgN/A
6:00 am30 °FChilly.2 mph98%30.40 "HgN/A
5:00 am30 °FChilly.1 mph100%30.40 "HgN/A
4:00 am31 °FChilly.2 mph99%30.40 "HgN/A
3:00 am31 °FChilly.1 mph100%30.40 "HgN/A
2:00 am31 °FChilly.2 mph99%30.40 "HgN/A
1:00 am31 °FChilly.1 mph99%30.39 "HgN/A
12:00 am31 °FChilly.1 mph98%30.40 "HgN/A
11:00 pm
Sun, Dec 4
31 °FChilly.2 mph97%30.39 "HgN/A
10:00 pm31 °FChilly.1 mph96%30.38 "HgN/A
9:00 pm30 °FChilly.No wind96%30.37 "HgN/A
8:00 pm32 °FChilly.1 mph94%30.36 "HgN/A
7:00 pm34 °FChilly.1 mph91%30.34 "HgN/A
Weather by CustomWeather, © 2016

See weather overviewHow to use our weather pages